This is the latest recevied weather packets stored in our database for station/object HASTNG-WX. If no packets are shown the sender has not sent any weather packets the latest 10 day(s).
| Time | Temp. | Humidity | Pressure | Rain* | Wind** | Luminosity | Snow |
|---|---|---|---|---|---|---|---|
| 1778121930 | 7.22° C | 56% | 985 hPa | 0 mm | - | - | - |
| 1778121045 | 7.22° C | 56% | 984.8 hPa | 0 mm | - | - | - |
| 1778120130 | 6.67° C | 56% | 984.7 hPa | 0 mm | - | - | - |
| 1778119254 | 6.67° C | 56% | 984.7 hPa | 0 mm | - | - | - |
| 1778118330 | 7.22° C | 50% | 984.3 hPa | 0 mm | - | - | - |
| 1778117446 | 7.78° C | 50% | 984.3 hPa | 0 mm | - | - | - |
| 1778116530 | 7.78° C | 50% | 984.3 hPa | 0 mm | - | - | - |
| 1778115655 | 7.78° C | 50% | 984.3 hPa | 0 mm | - | - | - |
| 1778114730 | 7.78° C | 38% | 984.9 hPa | 0 mm | - | - | - |
| 1778113847 | 8.89° C | 39% | 984.9 hPa | 0 mm | - | - | - |
| 1778112929 | 8.89° C | 39% | 984.9 hPa | 0 mm | - | - | - |
| 1778112063 | 9.44° C | 39% | 984.9 hPa | 0 mm | - | - | - |
| 1778111130 | 10° C | 36% | 983.4 hPa | 0 mm | - | - | - |
| 1778110253 | 10.56° C | 35% | 984 hPa | 0 mm | - | - | - |
| 1778109331 | 10.56° C | 35% | 984 hPa | 0 mm | - | - | - |
| 1778108458 | 10.56° C | 35% | 984 hPa | 0 mm | - | - | - |
| 1778107530 | 10.56° C | 33% | 984.1 hPa | 0 mm | - | - | - |
| 1778106644 | 10.56° C | 34% | 984.4 hPa | 0 mm | - | - | - |
| 1778105730 | 11.11° C | 34% | 984.4 hPa | 0 mm | - | - | - |
| 1778104863 | 11.11° C | 34% | 984.4 hPa | 0 mm | - | - | - |
| 1778103930 | 11.67° C | 34% | 984.4 hPa | 0 mm | - | - | - |
| 1778103049 | 11.67° C | 31% | 984.5 hPa | 0 mm | - | - | - |
| 1778102129 | 11.67° C | 31% | 984.6 hPa | 0 mm | - | - | - |
| 1778101260 | 11.67° C | 31% | 984.6 hPa | 0 mm | - | - | - |
| 1778100331 | 11.67° C | 33% | 984.3 hPa | 0 mm | - | - | - |
* Rain latest hour (hover to see other rain measurements)
** Current wind speed in m/s (hover to see current wind gust speed)